Weather Roundup
Issued by NWS

Home | Current Version | Previous Version | Graphics & Text | Print | Product List | Glossary Off
Versions: 1 2 3 4 5 6 7 8 9 10 11 12 13 14 15 16 17 18 19 20 21 22 23 24 25 26 27 28 29 30 31 32 33 34 35 36 37 38 39 40 41 42 43 44 45 46 47 48 49 50

000
NZUS93 KARX 022259
HRRWXR

CURRENT HOURLY OBSERVATIONS ACROSS
MUCH OF THE UPPER MISSISSIPPI VALLEY
NATIONAL WEATHER SERVICE LA CROSSE WI
600 PM CDT SAT MAY 02 2015


...SOUTHEAST MINNESOTA...


CITY           SKY/WX    TMP DP  RH WIND       PRES   REMARKS
ROCHESTER      PTSUNNY   77  49  37 S17       29.82F
ROCHESTER/MAYO MOCLDY    76  47  35 SW15G21   29.81S
WINONA         MOSUNNY   79  45  29 SW9G16    29.81S
AUSTIN         SUNNY     75  48  38 SW16G24   29.82S
ALBERT LEA     MOSUNNY   77  46  33 S15G21    29.80F
DODGE CENTER   MOSUNNY   75  50  41 SW14      29.81S
PRESTON        MOSUNNY   75  47  36 SW16G25   29.85R
OWATONNA       MOSUNNY   81  37  21 SW15      29.79S
FARIBAULT      SUNNY     79  43  27 SW9       29.78F
$$

...ELSEWHERE IN MINNESOTA...


CITY           SKY/WX    TMP DP  RH WIND       PRES   REMARKS
MINNEAPOLIS    MOSUNNY   80  42  25 S13G20    29.76F
INTNL FALLS    MOSUNNY   79  35  20 SW16G25   29.62S
DULUTH         MOSUNNY   73  42  32 S8        29.76F
RED WING       SUNNY     81  37  21 SW9       29.77S
REDWOOD FALLS  PTSUNNY   83  41  22 S9        29.71F
MANKATO        SUNNY     81  39  22 SW10      29.76F
WORTHINGTON    SUNNY     77  46  33 S18       29.78F
FAIRMONT       MOSUNNY   77  27  15 S20       29.78F
$$

...SOUTHWEST WISCONSIN...


CITY           SKY/WX    TMP DP  RH WIND       PRES   REMARKS
LA CROSSE      MOSUNNY   79  33  19 S14       29.83S
PRAIRIE DU CHI PTSUNNY   75  45  34 S10G21    29.88S
BOSCOBEL       MOSUNNY   77  43  29 SW15G24   29.89S
LONE ROCK      NOT AVBL
PLATTEVILLE    MOSUNNY   75  38  26 SW16G22   29.92F
FORT MC COY    SUNNY     78  37  22 S13       29.86F
CAMP DOUGLAS   SUNNY     77  41  27 SW15G21   29.86S
VIROQUA        FAIR      75  42  31 S16G25    29.88F
WIS DELLS      NOT AVBL
$$

...ELSEWHERE IN WISCONSIN...


CITY           SKY/WX    TMP DP  RH WIND       PRES   REMARKS
MILWAUKEE      PTSUNNY   69  38  32 SE10      29.92F
MADISON        PTSUNNY   76  40  27 VRB7      29.91S
GREEN BAY      MOSUNNY   77  42  28 SW13      29.86S
EAU CLAIRE     NOT AVBL
BLACK RVR FLS  FAIR      79  37  22 SW13G20   29.84S
MEDFORD        PTSUNNY   73  41  32 SW10G17   29.86R
WAUSAU         CLOUDY    76  40  27 SW13      29.84S
WIS RAPIDS     MOSUNNY   77  35  21 W14       29.87S
MARSHFIELD     MOSUNNY   77  39  25 W10       29.85S
RICE LAKE      MOSUNNY   76  39  26 SW9       29.82F
$$

...NORTHEAST IOWA...


CITY           SKY/WX    TMP DP  RH WIND       PRES   REMARKS
DECORAH        MOSUNNY   73  48  40 SW12G21   29.87R
MASON CITY     SUNNY     74  50  42 S15G24    29.85S
CHARLES CITY   MOSUNNY   73  50  43 SW15G23   29.88R
OELWEIN        PTSUNNY   72  50  46 SW18G32   29.91S
$$

...ELSEWHERE IN IOWA...


CITY           SKY/WX    TMP DP  RH WIND       PRES   REMARKS
DES MOINES     PTSUNNY   66  55  67 S20       29.90R
IOWA CITY      PTSUNNY   68  51  54 S9        29.96S
FORT DODGE     SUNNY     72  52  49 S16G29    29.86R
$$

...NORTHERN ILLINOIS...


CITY           SKY/WX    TMP DP  RH WIND       PRES   REMARKS
CHICAGO-OHARE  PTSUNNY   75  35  23 SW12      29.94F
CHICAGO-MIDWAY PTSUNNY   76  36  23 SW8       29.96S
MOLINE         PTSUNNY   73  38  27 W13       29.94S
ROCKFORD       PTSUNNY   76  38  25 SW9       29.96S
PEORIA         CLOUDY    74  41  30 SW9       29.98S
$$

NOTE: "FAIR" INDICATES FEW OR NO CLOUDS BELOW 12,000 FEET WITH NO
SIGNIFICANT WEATHER AND/OR OBSTRUCTIONS TO VISIBILITY. WIND
SPEEDS ARE IN MILES-PER-HOUR.



USA.gov is the U.S. government's official web portal to all federal, state and local government web resources and services.